Flag for U.S.A. Weather past 2 weeks in Garland, Texas, U.S.A.

Now
82 °F

Sunny.


Feels Like: 81 °F
Forecast: 61 / 81 °F
Wind: 6 mph from North

Location: Mesquite Metro Airport

Current Time: Sep 22, 2014 at 7:42:41 PM

Latest Report: Sep 22, 2014 at 6:50 PM


Visibility: 10 mi

Pressure: 30.10 "Hg

Humidity: 26%

Dew point: 45 °F

Location of GarlandLocation

Historic Weather in Garland — Graph

°F

Garland temperature yesterday

Maximum temperature yesterday: 91 °F (at 5:50 PM)
Minimum temperature yesterday: 66 °F (at 4:55 AM)
Average temperature yesterday: 76 °F

Past Weeks' High & Low Weather Summary

 TemperatureHumidityPressure
High99 °F (Sep 10, 2:55 PM)100% (Sep 8, 6:50 AM)30.29 "Hg (Sep 8, 6:50 AM)
Low57 °F (Sep 13, 6:47 AM)22% (Sep 22, 3:50 PM)29.75 "Hg (Sep 10, 5:55 PM)
Average76 °F74%30.02 "Hg
* Reported Sep 7 5:50 PM — Sep 22 5:50 PM, Garland, Weather by CustomWeather, © 2014

Note: Actual official high and low records may vary slightly from our data, if they occured in-between our weather recording intervals... More about our weather records

Advertising

Garland weather history for previous 24 hours

 ConditionsComfort  
Time TempWeatherWind HumidityBarometerVisibility
5:50 PM
Sep 22
84 °FSunny.3 mph23%30.10 "Hg10 mi
4:50 PM86 °FSunny.7 mph22%30.11 "Hg10 mi
3:50 PM88 °FSunny.9 mph22%30.12 "Hg10 mi
2:50 PM86 °FSunny.10 mph25%30.14 "Hg10 mi
1:50 PM84 °FSunny.7 mph31%30.17 "Hg10 mi
12:50 PM82 °FSunny.9 mph32%30.19 "Hg10 mi
11:50 AM81 °FSunny.7 mph32%30.21 "Hg10 mi
10:50 AM79 °FSunny.8 mph37%30.21 "Hg10 mi
9:50 AM75 °FOvercast.9 mph50%30.21 "Hg10 mi
8:50 AM73 °FOvercast.6 mph53%30.20 "Hg10 mi
7:50 AM72 °FPassing clouds.5 mph65%30.18 "Hg10 mi
6:50 AM72 °FPassing clouds.5 mph73%30.16 "Hg10 mi
5:35 AM73 °FPartly cloudy.8 mph73%30.14 "Hg10 mi
5:15 AM74 °FOvercast.8 mph71%30.13 "Hg10 mi
4:55 AM74 °FPassing clouds.7 mph73%30.13 "Hg10 mi
4:35 AM74 °FClear.5 mph75%30.13 "Hg10 mi
4:15 AM74 °FPassing clouds.6 mph76%30.12 "Hg10 mi
3:55 AM75 °FClear.5 mph78%30.12 "Hg10 mi
3:35 AM75 °FClear.5 mph79%30.12 "Hg10 mi
3:15 AM75 °FClear.5 mph80%30.11 "Hg10 mi
2:55 AM76 °FClear.5 mph80%30.11 "Hg10 mi
2:35 AM76 °FClear.5 mph80%30.12 "Hg10 mi
2:15 AM76 °FClear.6 mph78%30.11 "Hg10 mi
1:55 AM77 °FClear.7 mph78%30.11 "Hg10 mi
1:35 AM77 °FClear.8 mph77%30.10 "Hg10 mi
1:15 AM78 °FClear.6 mph74%30.10 "Hg10 mi
12:55 AM78 °FClear.6 mph73%30.10 "Hg10 mi
12:35 AM79 °FClear.9 mph71%30.10 "Hg10 mi
12:15 AM79 °FPassing clouds.9 mph65%30.10 "Hg10 mi
11:55 PM
Sep 21
80 °FPartly cloudy.5 mph60%30.09 "Hg10 mi
11:35 PM78 °FMostly cloudy.5 mph60%30.09 "Hg10 mi
11:15 PM80 °FPassing clouds.3 mph55%30.08 "Hg10 mi
10:55 PM78 °FClear.No wind59%30.08 "Hg10 mi
10:35 PM79 °FClear.No wind57%30.08 "Hg10 mi
10:15 PM81 °FPassing clouds.No wind54%30.08 "Hg10 mi
9:55 PM82 °FPassing clouds.3 mph53%30.08 "Hg10 mi
7:50 PM84 °FScattered clouds.3 mph45%30.03 "Hg10 mi
Weather by CustomWeather, © 2014

See weather overviewHow to use our weather pages